User: anonymous   Login
Location: Long Point Provincial Park
(42.5794°N, 80.4103°W)
Time: 15:21:56
(UTC-04:00)
Language:

Iridium 19 - Orbit

View from above orbital plane
View from above orbital plane
View from above satellite
View from above satellite

Ground track
Ground track

The orbit data is extracted from the following two-line orbital elements,

1 24965U 97056A   15108.22657323  .00000270  00000-0  89373-4 0  9991
2 24965 086.3920 289.3027 0002115 093.2365 266.9072 14.34219664919184
Epoch (UTC): 18 April 2015 05:26:15
Eccentricity: 0.0002115
inclination: 86.3920°
perigee height: 776 km
apogee height: 779 km
right ascension of ascending node: 289.3027°
argument of perigee: 93.2365°
revolutions per day: 14.34219664
mean anomaly at epoch: 266.9072°
orbit number at epoch: 91918

The dashed part of the orbit path shows where the satellite is in the earth's shadow,  

DLR